TimePDT,TemperatureF,Dew PointF,Humidity,Sea Level PressureIn,VisibilityMPH,Wind Direction,Wind SpeedMPH,Gust SpeedMPH,PrecipitationIn,Events,Conditions,WindDirDegrees,DateUTC
12:00 AM,43.9,42.3,94,30.09,-9999.0,Calm,Calm,-,0.06,,Unknown,0,2013-03-12 07:00:00
1:00 AM,44.1,43.0,96,30.07,-9999.0,WNW,2.3,-,0.09,,Unknown,300,2013-03-12 08:00:00
2:00 AM,44.4,43.3,96,30.06,-9999.0,Calm,Calm,-,0.07,,Unknown,0,2013-03-12 09:00:00
3:00 AM,44.2,43.3,97,30.04,-9999.0,East,3.5,-,0.05,,Unknown,100,2013-03-12 10:00:00
4:00 AM,44.2,43.5,97,30.02,-9999.0,East,3.5,-,0.03,,Unknown,90,2013-03-12 11:00:00
5:00 AM,45,44,96,30.00,,ENE,3.5,,,,,60,2013-03-12 12:00:00
5:00 AM,45.0,44.2,97,30.00,-9999.0,ENE,3.5,-,0.08,,Unknown,60,2013-03-12 12:00:00
7:00 AM,47.3,46.4,97,29.99,-9999.0,Calm,Calm,-,0.16,,Unknown,0,2013-03-12 14:00:00
8:00 AM,48.4,47.5,97,29.97,-9999.0,WNW,3.5,-,0.20,,Unknown,300,2013-03-12 15:00:00
9:00 AM,49.3,47.5,94,29.96,-9999.0,WNW,12.7,-,0.23,,Unknown,300,2013-03-12 16:00:00
10:00 AM,48.4,47.1,95,29.98,-9999.0,WNW,16.1,-,0.31,,Unknown,300,2013-03-12 17:00:00
11:00 AM,49,47,91,30.00,,WNW,15.0,,,,,290,2013-03-12 18:00:00
11:00 AM,48.7,47.1,94,30.00,-9999.0,WNW,15.0,20.7,0.23,,Unknown,290,2013-03-12 18:00:00
12:00 PM,48.9,46.9,93,30.01,-9999.0,WNW,15.0,-,0.19,,Unknown,290,2013-03-12 19:00:00
1:00 PM,48.9,46.9,93,30.02,-9999.0,WNW,13.8,-,0.07,,Unknown,290,2013-03-12 20:00:00
2:00 PM,49.1,47.5,94,30.02,-9999.0,WNW,12.7,-,0.06,,Unknown,300,2013-03-12 21:00:00
3:00 PM,50.0,47.7,92,30.01,-9999.0,NW,11.5,20.7,0.03,,Unknown,310,2013-03-12 22:00:00
4:00 PM,50.2,47.7,91,30.02,-9999.0,NW,11.5,-,0.05,,Unknown,310,2013-03-12 23:00:00
5:00 PM,50,48,89,30.01,,NW,9.2,,,,,310,2013-03-13 00:00:00
5:00 PM,50.4,47.8,91,30.01,-9999.0,NW,9.2,-,0.05,,Unknown,310,2013-03-13 00:00:00
6:00 PM,50.2,47.3,90,30.01,-9999.0,WNW,8.1,-,0.03,,Unknown,300,2013-03-13 01:00:00
7:00 PM,49.8,47.3,91,30.01,-9999.0,NW,10.4,-,0.07,,Unknown,310,2013-03-13 02:00:00
8:00 PM,49.8,47.7,92,30.00,-9999.0,NW,9.2,-,0.15,,Unknown,310,2013-03-13 03:00:00
9:00 PM,49.1,47.7,95,30.00,-9999.0,WNW,11.5,-,0.09,,Unknown,300,2013-03-13 04:00:00
10:00 PM,49.8,47.7,92,30.01,-9999.0,WNW,11.5,-,0.06,,Unknown,300,2013-03-13 05:00:00
11:00 PM,50,48,89,30.01,,WNW,11.5,,,,,300,2013-03-13 06:00:00
11:00 PM,50.0,47.8,92,30.01,-9999.0,WNW,11.5,-,0.11,,Unknown,300,2013-03-13 06:00:00